Photometre #855[NE_1.6_Dp] Loftus_MO AOT

File : 20220927_855.hum

27/09/2022,06:59:38,TEMP=5.8,BA=5.64,STAT.A,ExtBa=12.30
27/09/2022,07:04:10,TEMP=6.0,BA=5.64,STAT.A,ExtBa=12.30
27/09/2022,07:09:30,TEMP=6.2,BA=5.64,STAT.A,ExtBa=12.30
27/09/2022,07:15:51,TEMP=6.3,BA=5.64,STAT.A,ExtBa=12.30
27/09/2022,07:23:33,TEMP=6.5,BA=5.64,STAT.A,ExtBa=12.30
27/09/2022,07:27:23,TEMP=6.8,BA=5.64,STAT.D,ExtBa=12.30
27/09/2022,07:30:23,TEMP=7.0,BA=5.64,STAT.D,ExtBa=12.30
27/09/2022,07:33:07,TEMP=7.2,BA=5.64,STAT.A,ExtBa=12.30
27/09/2022,07:39:37,TEMP=7.1,BA=5.64,STAT.D,ExtBa=12.30
27/09/2022,07:42:23,TEMP=7.5,BA=5.64,STAT.D,ExtBa=12.20
27/09/2022,07:45:20,TEMP=7.9,BA=5.64,STAT.B,ExtBa=12.20
27/09/2022,07:55:03,TEMP=9.0,BA=5.64,STAT.A,ExtBa=12.10
27/09/2022,07:57:54,TEMP=8.9,BA=5.64,STAT.A,ExtBa=12.20
27/09/2022,08:00:23,TEMP=9.1,BA=5.64,STAT.D,ExtBa=12.20
27/09/2022,08:03:23,TEMP=9.2,BA=5.64,STAT.D,ExtBa=12.20
27/09/2022,08:05:29,TEMP=9.5,BA=5.64,STAT.A,ExtBa=12.20
27/09/2022,08:09:23,TEMP=9.3,BA=5.64,STAT.D,ExtBa=12.20
27/09/2022,08:12:23,TEMP=9.5,BA=5.60,STAT.D,ExtBa=12.20
27/09/2022,08:14:23,TEMP=9.9,BA=5.60,STAT.A,ExtBa=12.20
27/09/2022,08:18:23,TEMP=9.7,BA=5.60,STAT.D,ExtBa=12.20
27/09/2022,08:21:23,TEMP=9.8,BA=5.64,STAT.D,ExtBa=12.20
27/09/2022,08:24:23,TEMP=9.9,BA=5.64,STAT.D,ExtBa=12.20
27/09/2022,08:26:22,TEMP=10.3,BA=5.64,STAT.C,ExtBa=12.20
27/09/2022,08:50:14,TEMP=11.3,BA=5.60,STAT.b=10.0
27/09/2022,08:50:56,TEMP=11.3,BA=5.60,STAT.A,ExtBa=12.10
27/09/2022,08:54:19,TEMP=11.0,BA=5.60,STAT.A,ExtBa=12.10
27/09/2022,08:56:28,TEMP=11.2,BA=5.60,STAT.F,ExtBa=12.10
27/09/2022,09:20:36,TEMP=11.9,BA=5.60,STAT.b=10.0
27/09/2022,09:21:11,TEMP=11.9,BA=5.60,STAT.b=10.0
27/09/2022,09:24:22,TEMP=11.4,BA=5.60,STAT.D,ExtBa=12.10
27/09/2022,09:26:20,TEMP=11.8,BA=5.60,STAT.D,ExtBa=12.10
27/09/2022,09:32:43,TEMP=11.5,BA=5.60,STAT.D,ExtBa=12.20
27/09/2022,09:36:23,TEMP=11.7,BA=5.60,STAT.D,ExtBa=12.10
27/09/2022,09:39:23,TEMP=11.8,BA=5.60,STAT.D,ExtBa=12.10
27/09/2022,09:41:24,TEMP=12.2,BA=5.60,STAT.D,ExtBa=12.10
27/09/2022,09:45:23,TEMP=11.9,BA=5.60,STAT.D,ExtBa=12.10
27/09/2022,09:48:23,TEMP=12.0,BA=5.60,STAT.D,ExtBa=12.10
27/09/2022,09:51:23,TEMP=12.1,BA=5.64,STAT.D,ExtBa=12.10
27/09/2022,09:54:23,TEMP=12.2,BA=5.64,STAT.D,ExtBa=12.10
27/09/2022,09:56:23,TEMP=12.5,BA=5.64,STAT.F,ExtBa=12.10
27/09/2022,10:20:30,TEMP=13.1,BA=5.60,STAT.b=11.0
27/09/2022,10:22:24,TEMP=13.1,BA=5.60,STAT.b=11.0
27/09/2022,10:24:23,TEMP=12.6,BA=5.60,STAT.D,ExtBa=12.10
27/09/2022,10:26:20,TEMP=13.0,BA=5.60,STAT.D,ExtBa=12.10
27/09/2022,10:30:23,TEMP=12.7,BA=5.64,STAT.D,ExtBa=12.10
27/09/2022,10:33:24,TEMP=12.8,BA=5.64,STAT.D,ExtBa=12.10
27/09/2022,10:36:23,TEMP=12.9,BA=5.64,STAT.D,ExtBa=12.10
27/09/2022,10:39:24,TEMP=12.9,BA=5.64,STAT.D,ExtBa=12.10
27/09/2022,10:41:21,TEMP=13.2,BA=5.60,STAT.D,ExtBa=12.10
27/09/2022,10:45:24,TEMP=12.9,BA=5.60,STAT.D,ExtBa=12.10
27/09/2022,10:48:24,TEMP=13.1,BA=5.60,STAT.D,ExtBa=12.10
27/09/2022,10:51:23,TEMP=13.1,BA=5.64,STAT.D,ExtBa=12.10
27/09/2022,10:54:24,TEMP=13.1,BA=5.64,STAT.D,ExtBa=12.10
27/09/2022,10:56:21,TEMP=13.4,BA=5.64,STAT.F,ExtBa=12.10
27/09/2022,11:20:54,TEMP=14.3,BA=5.56,STAT.D,ExtBa=12.10
27/09/2022,11:24:24,TEMP=13.8,BA=5.56,STAT.D,ExtBa=12.10
27/09/2022,11:26:14,TEMP=14.2,BA=5.56,STAT.D,ExtBa=12.10
27/09/2022,11:30:24,TEMP=13.9,BA=5.64,STAT.D,ExtBa=12.10
27/09/2022,11:33:24,TEMP=13.9,BA=5.64,STAT.D,ExtBa=12.10
27/09/2022,11:36:24,TEMP=13.7,BA=5.64,STAT.D,ExtBa=12.10
27/09/2022,11:39:24,TEMP=13.5,BA=5.64,STAT.D,ExtBa=12.10
27/09/2022,11:41:23,TEMP=13.6,BA=5.56,STAT.D,ExtBa=12.10
27/09/2022,11:51:24,TEMP=13.5,BA=5.64,STAT.D,ExtBa=12.10
27/09/2022,11:54:24,TEMP=13.6,BA=5.64,STAT.D,ExtBa=12.10
27/09/2022,11:56:21,TEMP=13.9,BA=5.64,STAT.F,ExtBa=12.10
27/09/2022,12:22:02,TEMP=14.4,BA=5.60,STAT.D,ExtBa=12.10
27/09/2022,12:25:15,TEMP=13.9,BA=5.60,STAT.D,ExtBa=12.10
27/09/2022,12:27:24,TEMP=14.0,BA=5.60,STAT.D,ExtBa=12.10
27/09/2022,12:30:24,TEMP=13.9,BA=5.64,STAT.D,ExtBa=12.10
27/09/2022,12:33:24,TEMP=14.0,BA=5.64,STAT.D,ExtBa=12.10
27/09/2022,12:36:24,TEMP=14.2,BA=5.64,STAT.D,ExtBa=12.10
27/09/2022,12:39:24,TEMP=14.3,BA=5.64,STAT.D,ExtBa=12.10
27/09/2022,12:41:21,TEMP=14.7,BA=5.56,STAT.D,ExtBa=12.10
27/09/2022,12:47:54,TEMP=14.4,BA=5.56,STAT.D,ExtBa=12.10
27/09/2022,12:51:24,TEMP=14.6,BA=5.64,STAT.D,ExtBa=12.10
27/09/2022,12:54:24,TEMP=14.7,BA=5.64,STAT.D,ExtBa=12.10
27/09/2022,12:56:22,TEMP=14.9,BA=5.64,STAT.F,ExtBa=12.10
27/09/2022,13:21:37,TEMP=15.2,BA=5.56,STAT.D,ExtBa=12.10
27/09/2022,13:25:07,TEMP=14.8,BA=5.56,STAT.D,ExtBa=12.10
27/09/2022,13:27:23,TEMP=14.8,BA=5.56,STAT.D,ExtBa=12.10
27/09/2022,13:39:24,TEMP=14.5,BA=5.64,STAT.D,ExtBa=12.10
27/09/2022,13:41:21,TEMP=15.1,BA=5.60,STAT.D,ExtBa=12.10
27/09/2022,13:45:23,TEMP=14.9,BA=5.60,STAT.D,ExtBa=12.10
27/09/2022,13:55:09,TEMP=14.4,BA=5.64,STAT.F,ExtBa=12.10
27/09/2022,14:10:07,TEMP=12.9,BA=5.60,STAT.D,ExtBa=12.10
27/09/2022,14:21:23,TEMP=11.9,BA=5.64,STAT.D,ExtBa=12.10
27/09/2022,14:25:07,TEMP=11.9,BA=5.64,STAT.D,ExtBa=12.10
27/09/2022,14:36:23,TEMP=11.4,BA=5.64,STAT.D,ExtBa=12.10
27/09/2022,14:40:07,TEMP=11.6,BA=5.60,STAT.D,ExtBa=12.10
27/09/2022,14:51:23,TEMP=11.5,BA=5.64,STAT.D,ExtBa=12.10
27/09/2022,14:55:09,TEMP=11.0,BA=5.64,STAT.F,ExtBa=12.10
27/09/2022,14:59:09,TEMP=10.1,BA=5.64,STAT.A,ExtBa=12.10
27/09/2022,15:12:23,TEMP=8.2,BA=5.64,STAT.D,ExtBa=12.10
27/09/2022,15:14:21,TEMP=8.6,BA=5.64,STAT.A,ExtBa=12.10
27/09/2022,15:25:53,TEMP=8.1,BA=5.64,STAT.C,ExtBa=12.20
27/09/2022,15:25:55,TEMP=8.1,BA=5.64,STAT.h
27/09/2022,15:36:03,TEMP=8.3,BA=5.64,STAT.A,ExtBa=12.20
27/09/2022,15:44:48,TEMP=8.8,BA=5.64,STAT.A,ExtBa=12.20
27/09/2022,15:48:23,TEMP=9.3,BA=5.64,STAT.D,ExtBa=12.10
27/09/2022,15:51:23,TEMP=9.6,BA=5.64,STAT.D,ExtBa=12.10
27/09/2022,15:53:21,TEMP=10.1,BA=5.64,STAT.A,ExtBa=12.10
27/09/2022,15:57:23,TEMP=10.0,BA=5.64,STAT.D,ExtBa=12.10
27/09/2022,15:59:24,TEMP=10.5,BA=5.64,STAT.A,ExtBa=12.10
27/09/2022,16:03:23,TEMP=10.4,BA=5.60,STAT.D,ExtBa=12.10
27/09/2022,16:05:21,TEMP=10.8,BA=5.60,STAT.B,ExtBa=12.10
27/09/2022,16:15:23,TEMP=9.8,BA=5.64,STAT.D,ExtBa=12.10
27/09/2022,16:17:21,TEMP=10.1,BA=5.64,STAT.A,ExtBa=12.10
27/09/2022,16:21:23,TEMP=9.7,BA=5.64,STAT.D,ExtBa=12.10
27/09/2022,16:26:43,TEMP=9.5,BA=5.64,STAT.A,ExtBa=12.10
27/09/2022,16:34:25,TEMP=9.4,BA=5.64,STAT.A,ExtBa=12.10
27/09/2022,16:40:46,TEMP=9.5,BA=5.64,STAT.A,ExtBa=12.10
27/09/2022,16:46:06,TEMP=9.4,BA=5.64,STAT.A,ExtBa=12.10
27/09/2022,16:50:38,TEMP=9.4,BA=5.64,STAT.A,ExtBa=12.10